Year,Month,Day,Hour,Minute,Value (Times are PST for temperature in C)
2018,02,04,00,00,8.40
2018,02,04,00,01,8.40
2018,02,04,00,02,8.40
2018,02,04,00,03,8.30
2018,02,04,00,04,8.30
2018,02,04,00,05,8.30
2018,02,04,00,06,8.30
2018,02,04,00,07,8.30
2018,02,04,00,08,8.30
2018,02,04,00,09,8.30
2018,02,04,00,10,8.30
2018,02,04,00,11,8.30
2018,02,04,00,12,8.30
2018,02,04,00,13,8.30
2018,02,04,00,14,8.30
2018,02,04,00,15,8.40
2018,02,04,00,16,8.40
2018,02,04,00,17,8.40
2018,02,04,00,18,8.40
2018,02,04,00,19,8.30
2018,02,04,00,20,8.30
2018,02,04,00,21,8.30
2018,02,04,00,22,8.30
2018,02,04,00,23,8.30
2018,02,04,00,24,8.30
2018,02,04,00,25,8.30
2018,02,04,00,26,8.40
2018,02,04,00,27,8.40
2018,02,04,00,28,8.40
2018,02,04,00,29,8.40
2018,02,04,00,30,8.30
2018,02,04,00,31,8.30
2018,02,04,00,32,8.40
2018,02,04,00,33,8.40
2018,02,04,00,34,8.40
2018,02,04,00,35,8.40
2018,02,04,00,36,8.40
2018,02,04,00,37,8.40
2018,02,04,00,38,8.40
2018,02,04,00,39,8.40
2018,02,04,00,40,8.40
2018,02,04,00,41,8.40
2018,02,04,00,42,8.40
2018,02,04,00,43,8.40
2018,02,04,00,44,8.40
2018,02,04,00,45,8.40
2018,02,04,00,46,8.40
2018,02,04,00,47,8.40
2018,02,04,00,48,8.40
2018,02,04,00,49,8.40
2018,02,04,00,50,8.40
2018,02,04,00,51,8.40
2018,02,04,00,52,8.40
2018,02,04,00,53,8.40
2018,02,04,00,54,8.40
2018,02,04,00,55,8.40
2018,02,04,00,56,8.40
2018,02,04,00,57,8.40
2018,02,04,00,58,8.40
2018,02,04,00,59,8.30
2018,02,04,01,00,8.30
2018,02,04,01,01,8.30
2018,02,04,01,02,8.30
2018,02,04,01,03,8.30
2018,02,04,01,04,8.30
2018,02,04,01,05,8.30
2018,02,04,01,06,8.30
2018,02,04,01,07,8.30
2018,02,04,01,08,8.30
2018,02,04,01,09,8.30
2018,02,04,01,10,8.30
2018,02,04,01,11,8.30
2018,02,04,01,12,8.30
2018,02,04,01,13,8.30
2018,02,04,01,14,8.30
2018,02,04,01,15,8.30
2018,02,04,01,16,8.30
2018,02,04,01,17,8.30
2018,02,04,01,18,8.30
2018,02,04,01,19,8.30
2018,02,04,01,20,8.30
2018,02,04,01,21,8.30
2018,02,04,01,22,8.30
2018,02,04,01,23,8.30
2018,02,04,01,24,8.30
2018,02,04,01,25,8.30
2018,02,04,01,26,8.30
2018,02,04,01,27,8.30
2018,02,04,01,28,8.30
2018,02,04,01,29,8.30
2018,02,04,01,30,8.30
2018,02,04,01,31,8.30
2018,02,04,01,32,8.30
2018,02,04,01,33,8.30
2018,02,04,01,34,8.30
2018,02,04,01,35,8.30
2018,02,04,01,36,8.30
2018,02,04,01,37,8.30
2018,02,04,01,38,8.30
2018,02,04,01,39,8.30
2018,02,04,01,40,8.30
2018,02,04,01,41,8.30
2018,02,04,01,42,8.30
2018,02,04,01,43,8.30
2018,02,04,01,44,8.30
2018,02,04,01,45,8.30
2018,02,04,01,46,8.30
2018,02,04,01,47,8.30
2018,02,04,01,48,8.30
2018,02,04,01,49,8.30
2018,02,04,01,50,8.30
2018,02,04,01,51,8.30
2018,02,04,01,52,8.30
2018,02,04,01,53,8.30
2018,02,04,01,54,8.30
2018,02,04,01,55,8.20
2018,02,04,01,56,8.20
2018,02,04,01,57,8.20
2018,02,04,01,58,8.20
2018,02,04,01,59,8.20
2018,02,04,02,00,8.20
2018,02,04,02,01,8.20
2018,02,04,02,02,8.20
2018,02,04,02,03,8.20
2018,02,04,02,04,8.20
2018,02,04,02,05,8.20
2018,02,04,02,06,8.20
2018,02,04,02,07,8.20
2018,02,04,02,08,8.20
2018,02,04,02,09,8.20
2018,02,04,02,10,8.20
2018,02,04,02,11,8.20
2018,02,04,02,12,8.20
2018,02,04,02,13,8.20
2018,02,04,02,14,8.20
2018,02,04,02,15,8.20
2018,02,04,02,16,8.20
2018,02,04,02,17,8.20
2018,02,04,02,18,8.20
2018,02,04,02,19,8.20
2018,02,04,02,20,8.20
2018,02,04,02,21,8.20
2018,02,04,02,22,8.10
2018,02,04,02,23,8.10
2018,02,04,02,24,8.10
2018,02,04,02,25,8.10
2018,02,04,02,26,8.10
2018,02,04,02,27,8.10
2018,02,04,02,28,8.10
2018,02,04,02,29,8.10
2018,02,04,02,30,8.10
2018,02,04,02,31,8.10
2018,02,04,02,32,8.10
2018,02,04,02,33,8.10
2018,02,04,02,34,8.10
2018,02,04,02,35,8.10
2018,02,04,02,36,8.10
2018,02,04,02,37,8.10
2018,02,04,02,38,8.10
2018,02,04,02,39,8.10
2018,02,04,02,40,8.10
2018,02,04,02,41,8.10
2018,02,04,02,42,8.10
2018,02,04,02,43,8.10
2018,02,04,02,44,8.20
2018,02,04,02,45,8.20
2018,02,04,02,46,8.20
2018,02,04,02,47,8.20
2018,02,04,02,48,8.10
2018,02,04,02,49,8.10
2018,02,04,02,50,8.10
2018,02,04,02,51,8.10
2018,02,04,02,52,8.20
2018,02,04,02,53,8.20
2018,02,04,02,54,8.20
2018,02,04,02,55,8.30
2018,02,04,02,56,8.30
2018,02,04,02,57,8.30
2018,02,04,02,58,8.30
2018,02,04,02,59,8.30
2018,02,04,03,00,8.30
2018,02,04,03,01,8.30
2018,02,04,03,02,8.30
2018,02,04,03,03,8.20
2018,02,04,03,04,8.20
2018,02,04,03,05,8.20
2018,02,04,03,06,8.20
2018,02,04,03,07,8.20
2018,02,04,03,08,8.30
2018,02,04,03,09,8.40
2018,02,04,03,10,8.50
2018,02,04,03,11,8.50
2018,02,04,03,12,8.50
2018,02,04,03,13,8.50
2018,02,04,03,14,8.60
2018,02,04,03,15,8.70
2018,02,04,03,16,8.80
2018,02,04,03,17,8.90
2018,02,04,03,18,8.90
2018,02,04,03,19,9.00
2018,02,04,03,20,8.90
2018,02,04,03,21,8.90
2018,02,04,03,22,8.90
2018,02,04,03,23,8.90
2018,02,04,03,24,8.90
2018,02,04,03,25,8.80
2018,02,04,03,26,8.90
2018,02,04,03,27,9.00
2018,02,04,03,28,9.10
2018,02,04,03,29,9.10
2018,02,04,03,30,9.10
2018,02,04,03,31,9.10
2018,02,04,03,32,9.10
2018,02,04,03,33,9.10
2018,02,04,03,34,9.10
2018,02,04,03,35,9.10
2018,02,04,03,36,9.10
2018,02,04,03,37,9.10
2018,02,04,03,38,9.10
2018,02,04,03,39,9.10
2018,02,04,03,40,9.10
2018,02,04,03,41,9.20
2018,02,04,03,42,9.20
2018,02,04,03,43,9.20
2018,02,04,03,44,9.20
2018,02,04,03,45,9.20
2018,02,04,03,46,9.20
2018,02,04,03,47,9.20
2018,02,04,03,48,9.20
2018,02,04,03,49,9.20
2018,02,04,03,50,9.20
2018,02,04,03,51,9.20
2018,02,04,03,52,9.20
2018,02,04,03,53,9.30
2018,02,04,03,54,9.40
2018,02,04,03,55,9.60
2018,02,04,03,56,9.80
2018,02,04,03,57,10.00
2018,02,04,03,58,10.00
2018,02,04,03,59,10.00
2018,02,04,04,00,10.00
2018,02,04,04,01,9.90
2018,02,04,04,02,9.80
2018,02,04,04,03,9.80
2018,02,04,04,04,9.90
2018,02,04,04,05,10.00
2018,02,04,04,06,10.10
2018,02,04,04,07,10.20
2018,02,04,04,08,10.20
2018,02,04,04,09,10.30
2018,02,04,04,10,10.40
2018,02,04,04,11,10.40
2018,02,04,04,12,10.40
2018,02,04,04,13,10.50
2018,02,04,04,14,10.50
2018,02,04,04,15,10.60
2018,02,04,04,16,10.70
2018,02,04,04,17,10.70
2018,02,04,04,18,10.80
2018,02,04,04,19,10.80
2018,02,04,04,20,10.80
2018,02,04,04,21,10.80
2018,02,04,04,22,10.90
2018,02,04,04,23,10.90
2018,02,04,04,24,11.00
2018,02,04,04,25,11.10
2018,02,04,04,26,11.10
2018,02,04,04,27,11.10
2018,02,04,04,28,11.10
2018,02,04,04,29,11.10
2018,02,04,04,30,11.10
2018,02,04,04,31,11.10
2018,02,04,04,32,11.10
2018,02,04,04,33,11.00
2018,02,04,04,34,11.00
2018,02,04,04,35,10.90
2018,02,04,04,36,10.90
2018,02,04,04,37,10.80
2018,02,04,04,38,10.80
2018,02,04,04,39,10.70
2018,02,04,04,40,10.70
2018,02,04,04,41,10.70
2018,02,04,04,42,10.70
2018,02,04,04,43,10.70
2018,02,04,04,44,10.70
2018,02,04,04,45,10.80
2018,02,04,04,46,10.80
2018,02,04,04,47,10.80
2018,02,04,04,48,10.80
2018,02,04,04,49,10.80
2018,02,04,04,50,10.80
2018,02,04,04,51,10.80
2018,02,04,04,52,10.90
2018,02,04,04,53,10.90
2018,02,04,04,54,10.90
2018,02,04,04,55,11.00
2018,02,04,04,56,11.10
2018,02,04,04,57,11.10
2018,02,04,04,58,11.10
2018,02,04,04,59,11.10
2018,02,04,05,00,11.10
2018,02,04,05,01,11.10
2018,02,04,05,02,11.10
2018,02,04,05,03,11.10
2018,02,04,05,04,11.00
2018,02,04,05,05,11.00
2018,02,04,05,06,10.90
2018,02,04,05,07,10.90
2018,02,04,05,08,10.90
2018,02,04,05,09,10.90
2018,02,04,05,10,10.90
2018,02,04,05,11,10.80
2018,02,04,05,12,10.80
2018,02,04,05,13,10.80
2018,02,04,05,14,10.70
2018,02,04,05,15,10.70
2018,02,04,05,16,10.60
2018,02,04,05,17,10.60
2018,02,04,05,18,10.50
2018,02,04,05,19,10.40
2018,02,04,05,20,10.30
2018,02,04,05,21,10.30
2018,02,04,05,22,10.30
2018,02,04,05,23,10.30
2018,02,04,05,24,10.30
2018,02,04,05,25,10.30
2018,02,04,05,26,10.30
2018,02,04,05,27,10.30
2018,02,04,05,28,10.30
2018,02,04,05,29,10.30
2018,02,04,05,30,10.40
2018,02,04,05,31,10.40
2018,02,04,05,32,10.50
2018,02,04,05,33,10.50
2018,02,04,05,34,10.40
2018,02,04,05,35,10.40
2018,02,04,05,36,10.40
2018,02,04,05,37,10.40
2018,02,04,05,38,10.50
2018,02,04,05,39,10.50
2018,02,04,05,40,10.50
2018,02,04,05,41,10.60
2018,02,04,05,42,10.60
2018,02,04,05,43,10.60
2018,02,04,05,44,10.60
2018,02,04,05,45,10.50
2018,02,04,05,46,10.50
2018,02,04,05,47,10.40
2018,02,04,05,48,10.50
2018,02,04,05,49,10.50
2018,02,04,05,50,10.50
2018,02,04,05,51,10.60
2018,02,04,05,52,10.60
2018,02,04,05,53,10.70
2018,02,04,05,54,10.70
2018,02,04,05,55,10.70
2018,02,04,05,56,10.70
2018,02,04,05,57,10.60
2018,02,04,05,58,10.60
2018,02,04,05,59,10.60
2018,02,04,06,00,10.60
2018,02,04,06,01,10.50
2018,02,04,06,02,10.40
2018,02,04,06,03,10.40
2018,02,04,06,04,10.30
2018,02,04,06,05,10.30
2018,02,04,06,06,10.30
2018,02,04,06,07,10.40
2018,02,04,06,08,10.40
2018,02,04,06,09,10.40
2018,02,04,06,10,10.40
2018,02,04,06,11,10.40
2018,02,04,06,12,10.50
2018,02,04,06,13,10.50
2018,02,04,06,14,10.50
2018,02,04,06,15,10.50
2018,02,04,06,16,10.50
2018,02,04,06,17,10.60
2018,02,04,06,18,10.50
2018,02,04,06,19,10.60
2018,02,04,06,20,10.60
2018,02,04,06,21,10.60
2018,02,04,06,22,10.60
2018,02,04,06,23,10.50
2018,02,04,06,24,10.50
2018,02,04,06,25,10.40
2018,02,04,06,26,10.40
2018,02,04,06,27,10.40
2018,02,04,06,28,10.40
2018,02,04,06,29,10.50
2018,02,04,06,30,10.50
2018,02,04,06,31,10.40
2018,02,04,06,32,10.40
2018,02,04,06,33,10.40
2018,02,04,06,34,10.50
2018,02,04,06,35,10.50
2018,02,04,06,36,10.60
2018,02,04,06,37,10.60
2018,02,04,06,38,10.60
2018,02,04,06,39,10.70
2018,02,04,06,40,10.70
2018,02,04,06,41,10.70
2018,02,04,06,42,10.60
2018,02,04,06,43,10.60
2018,02,04,06,44,10.60
2018,02,04,06,45,10.60
2018,02,04,06,46,10.60
2018,02,04,06,47,10.70
2018,02,04,06,48,10.70
2018,02,04,06,49,10.80
2018,02,04,06,50,10.80
2018,02,04,06,51,10.80
2018,02,04,06,52,10.80
2018,02,04,06,53,10.80
2018,02,04,06,54,10.70
2018,02,04,06,55,10.70
2018,02,04,06,56,10.70
2018,02,04,06,57,10.70
2018,02,04,06,58,10.60
2018,02,04,06,59,10.60
2018,02,04,07,00,10.50
2018,02,04,07,01,10.50
2018,02,04,07,02,10.50
2018,02,04,07,03,10.50
2018,02,04,07,04,10.60
2018,02,04,07,05,10.60
2018,02,04,07,06,10.60
2018,02,04,07,07,10.60
2018,02,04,07,08,10.60
2018,02,04,07,09,10.60
2018,02,04,07,10,10.60
2018,02,04,07,11,10.60
2018,02,04,07,12,10.50
2018,02,04,07,13,10.50
2018,02,04,07,14,10.50
2018,02,04,07,15,10.50
2018,02,04,07,16,10.50
2018,02,04,07,17,10.40
2018,02,04,07,18,10.40
2018,02,04,07,19,10.40
2018,02,04,07,20,10.40
2018,02,04,07,21,10.40
2018,02,04,07,22,10.40
2018,02,04,07,23,10.40
2018,02,04,07,24,10.40
2018,02,04,07,25,10.40
2018,02,04,07,26,10.40
2018,02,04,07,27,10.40
2018,02,04,07,28,10.30
2018,02,04,07,29,10.30
2018,02,04,07,30,10.30
2018,02,04,07,31,10.30
2018,02,04,07,32,10.30
2018,02,04,07,33,10.30
2018,02,04,07,34,10.30
2018,02,04,07,35,10.40
2018,02,04,07,36,10.40
2018,02,04,07,37,10.40
2018,02,04,07,38,10.40
2018,02,04,07,39,10.40
2018,02,04,07,40,10.50
2018,02,04,07,41,10.60
2018,02,04,07,42,10.60
2018,02,04,07,43,10.60
2018,02,04,07,44,10.60
2018,02,04,07,45,10.70
2018,02,04,07,46,10.70
2018,02,04,07,47,10.70
2018,02,04,07,48,10.80
2018,02,04,07,49,10.80
2018,02,04,07,50,10.80
2018,02,04,07,51,10.80
2018,02,04,07,52,10.80
2018,02,04,07,53,10.80
2018,02,04,07,54,10.90
2018,02,04,07,55,10.90
2018,02,04,07,56,10.90
2018,02,04,07,57,11.00
2018,02,04,07,58,11.00
2018,02,04,07,59,11.00
2018,02,04,08,00,11.10
2018,02,04,08,01,11.20
2018,02,04,08,02,11.20
2018,02,04,08,03,11.20
2018,02,04,08,04,11.20
2018,02,04,08,05,11.20
2018,02,04,08,06,11.20
2018,02,04,08,07,11.20
2018,02,04,08,08,11.20
2018,02,04,08,09,11.20
2018,02,04,08,10,11.20
2018,02,04,08,11,11.20
2018,02,04,08,12,11.20
2018,02,04,08,13,11.30
2018,02,04,08,14,11.30
2018,02,04,08,15,11.40
2018,02,04,08,16,11.40
2018,02,04,08,17,11.40
2018,02,04,08,18,11.40
2018,02,04,08,19,11.40
2018,02,04,08,20,11.40
2018,02,04,08,21,11.30
2018,02,04,08,22,11.30
2018,02,04,08,23,11.30
2018,02,04,08,24,11.30
2018,02,04,08,25,11.30
2018,02,04,08,26,11.30
2018,02,04,08,27,11.30
2018,02,04,08,28,11.30
2018,02,04,08,29,11.30
2018,02,04,08,30,11.30
2018,02,04,08,31,11.30
2018,02,04,08,32,11.30
2018,02,04,08,33,11.30
2018,02,04,08,34,11.30
2018,02,04,08,35,11.30
2018,02,04,08,36,11.30
2018,02,04,08,37,11.30
2018,02,04,08,38,11.30
2018,02,04,08,39,11.30
2018,02,04,08,40,11.30
2018,02,04,08,41,11.30
2018,02,04,08,42,11.20
2018,02,04,08,43,11.30
2018,02,04,08,44,11.30
2018,02,04,08,45,11.30
2018,02,04,08,46,11.30
2018,02,04,08,47,11.30
2018,02,04,08,48,11.30
2018,02,04,08,49,11.30
2018,02,04,08,50,11.30
2018,02,04,08,51,11.30
2018,02,04,08,52,11.30
2018,02,04,08,53,11.30
2018,02,04,08,54,11.30
2018,02,04,08,55,11.30
2018,02,04,08,56,11.30
2018,02,04,08,57,11.30
2018,02,04,08,58,11.30
2018,02,04,08,59,11.30
2018,02,04,09,00,11.30
2018,02,04,09,01,11.30
2018,02,04,09,02,11.30
2018,02,04,09,03,11.30
2018,02,04,09,04,11.30
2018,02,04,09,05,11.30
2018,02,04,09,06,11.30
2018,02,04,09,07,11.40
2018,02,04,09,08,11.40
2018,02,04,09,09,11.30
2018,02,04,09,10,11.40
2018,02,04,09,11,11.40
2018,02,04,09,12,11.50
2018,02,04,09,13,11.50
2018,02,04,09,14,11.50
2018,02,04,09,15,11.50
2018,02,04,09,16,11.50
2018,02,04,09,17,11.50
2018,02,04,09,18,11.50
2018,02,04,09,19,11.50
2018,02,04,09,20,11.60
2018,02,04,09,21,11.60
2018,02,04,09,22,11.50
2018,02,04,09,23,11.50
2018,02,04,09,24,11.60
2018,02,04,09,25,11.60
2018,02,04,09,26,11.70
2018,02,04,09,27,11.70
2018,02,04,09,28,11.70
2018,02,04,09,29,11.70
2018,02,04,09,30,11.70
2018,02,04,09,31,11.70
2018,02,04,09,32,11.70
2018,02,04,09,33,11.70
2018,02,04,09,34,11.70
2018,02,04,09,35,11.70
2018,02,04,09,36,11.70
2018,02,04,09,37,11.70
2018,02,04,09,38,11.70
2018,02,04,09,39,11.70
2018,02,04,09,40,11.70
2018,02,04,09,41,11.70
2018,02,04,09,42,11.70
2018,02,04,09,43,11.60
2018,02,04,09,44,11.60
2018,02,04,09,45,11.60
2018,02,04,09,46,11.60
2018,02,04,09,47,11.60
2018,02,04,09,48,11.50
2018,02,04,09,49,11.50
2018,02,04,09,50,11.50
2018,02,04,09,51,11.40
2018,02,04,09,52,11.40
2018,02,04,09,53,11.40
2018,02,04,09,54,11.40
2018,02,04,09,55,11.40
2018,02,04,09,56,11.30
2018,02,04,09,57,11.30
2018,02,04,09,58,11.30
2018,02,04,09,59,11.30
2018,02,04,10,00,11.30
2018,02,04,10,01,11.30
2018,02,04,10,02,11.30
2018,02,04,10,03,11.30
2018,02,04,10,04,11.30
2018,02,04,10,05,11.30
2018,02,04,10,06,11.30
2018,02,04,10,07,11.30
2018,02,04,10,08,11.30
2018,02,04,10,09,11.30
2018,02,04,10,10,11.30
2018,02,04,10,11,11.30
2018,02,04,10,12,11.20
2018,02,04,10,13,11.20
2018,02,04,10,14,11.20
2018,02,04,10,15,11.20
2018,02,04,10,16,11.20
2018,02,04,10,17,11.20
2018,02,04,10,18,11.20
2018,02,04,10,19,11.20
2018,02,04,10,20,11.10
2018,02,04,10,21,11.00
2018,02,04,10,22,10.90
2018,02,04,10,23,10.80
2018,02,04,10,24,10.70
2018,02,04,10,25,10.60
2018,02,04,10,26,10.50
2018,02,04,10,27,10.40
2018,02,04,10,28,10.30
2018,02,04,10,29,10.20
2018,02,04,10,30,10.20
2018,02,04,10,31,10.10
2018,02,04,10,32,10.10
2018,02,04,10,33,10.10
2018,02,04,10,34,10.10
2018,02,04,10,35,10.10
2018,02,04,10,36,10.10
2018,02,04,10,37,10.20
2018,02,04,10,38,10.20
2018,02,04,10,39,10.20
2018,02,04,10,40,10.20
2018,02,04,10,41,10.20
2018,02,04,10,42,10.20
2018,02,04,10,43,10.20
2018,02,04,10,44,10.20
2018,02,04,10,45,10.20
2018,02,04,10,46,10.30
2018,02,04,10,47,10.30
2018,02,04,10,48,10.30
2018,02,04,10,49,10.40
2018,02,04,10,50,10.40
2018,02,04,10,51,10.50
2018,02,04,10,52,10.60
2018,02,04,10,53,10.60
2018,02,04,10,54,10.70
2018,02,04,10,55,10.70
2018,02,04,10,56,10.70
2018,02,04,10,57,10.70
2018,02,04,10,58,10.80
2018,02,04,10,59,10.80
2018,02,04,11,00,10.80
2018,02,04,11,01,10.90
2018,02,04,11,02,10.90
2018,02,04,11,03,10.90
2018,02,04,11,04,11.00
2018,02,04,11,05,11.00
2018,02,04,11,06,11.00
2018,02,04,11,07,11.10
2018,02,04,11,08,11.10
2018,02,04,11,09,11.10
2018,02,04,11,10,11.10
2018,02,04,11,11,11.20
2018,02,04,11,12,11.20
2018,02,04,11,13,11.20
2018,02,04,11,14,11.20
2018,02,04,11,15,11.30
2018,02,04,11,16,11.30
2018,02,04,11,17,11.30
2018,02,04,11,18,11.30
2018,02,04,11,19,11.40
2018,02,04,11,20,11.40
2018,02,04,11,21,11.50
2018,02,04,11,22,11.50
2018,02,04,11,23,11.50
2018,02,04,11,24,11.50
2018,02,04,11,25,11.50
2018,02,04,11,26,11.50
2018,02,04,11,27,11.50
2018,02,04,11,28,11.50
2018,02,04,11,29,11.40
2018,02,04,11,30,11.40
2018,02,04,11,31,11.40
2018,02,04,11,32,11.40
2018,02,04,11,33,11.40
2018,02,04,11,34,11.40
2018,02,04,11,35,11.40
2018,02,04,11,36,11.40
2018,02,04,11,37,11.40
2018,02,04,11,38,11.40
2018,02,04,11,39,11.40
2018,02,04,11,40,11.40
2018,02,04,11,41,11.40
2018,02,04,11,42,11.30
2018,02,04,11,43,11.30
2018,02,04,11,44,11.30
2018,02,04,11,45,11.30
2018,02,04,11,46,11.30
2018,02,04,11,47,11.30
2018,02,04,11,48,11.30
2018,02,04,11,49,11.30
2018,02,04,11,50,11.20
2018,02,04,11,51,11.20
2018,02,04,11,52,11.20
2018,02,04,11,53,11.20
2018,02,04,11,54,11.20
2018,02,04,11,55,11.20
2018,02,04,11,56,11.20
2018,02,04,11,57,11.20
2018,02,04,11,58,11.20
2018,02,04,11,59,11.20
2018,02,04,12,00,11.30
2018,02,04,12,01,11.30
2018,02,04,12,02,11.30
2018,02,04,12,03,11.30
2018,02,04,12,04,11.30
2018,02,04,12,05,11.30
2018,02,04,12,06,11.30
2018,02,04,12,07,11.30
2018,02,04,12,08,11.30
2018,02,04,12,09,11.30
2018,02,04,12,10,11.30
2018,02,04,12,11,11.30
2018,02,04,12,12,11.30
2018,02,04,12,13,11.30
2018,02,04,12,14,11.30
2018,02,04,12,15,11.30
2018,02,04,12,16,11.30
2018,02,04,12,17,11.30
2018,02,04,12,18,11.30
2018,02,04,12,19,11.30
2018,02,04,12,20,11.30
2018,02,04,12,21,11.30
2018,02,04,12,22,11.20
2018,02,04,12,23,11.20
2018,02,04,12,24,11.20
2018,02,04,12,25,11.20
2018,02,04,12,26,11.20
2018,02,04,12,27,11.20
2018,02,04,12,28,11.20
2018,02,04,12,29,11.20
2018,02,04,12,30,11.20
2018,02,04,12,31,11.20
2018,02,04,12,32,11.20
2018,02,04,12,33,11.20
2018,02,04,12,34,11.20
2018,02,04,12,35,11.20
2018,02,04,12,36,11.20
2018,02,04,12,37,11.20
2018,02,04,12,38,11.20
2018,02,04,12,39,11.20
2018,02,04,12,40,11.20
2018,02,04,12,41,11.20
2018,02,04,12,42,11.30
2018,02,04,12,43,11.30
2018,02,04,12,44,11.30
2018,02,04,12,45,11.30
2018,02,04,12,46,11.30
2018,02,04,12,47,11.30
2018,02,04,12,48,11.30
2018,02,04,12,49,11.30
2018,02,04,12,50,11.30
2018,02,04,12,51,11.30
2018,02,04,12,52,11.30
2018,02,04,12,53,11.30
2018,02,04,12,54,11.30
2018,02,04,12,55,11.30
2018,02,04,12,56,11.30
2018,02,04,12,57,11.30
2018,02,04,12,58,11.30
2018,02,04,12,59,11.30
2018,02,04,13,00,11.40
2018,02,04,13,01,11.40
2018,02,04,13,02,11.40
2018,02,04,13,03,11.50
2018,02,04,13,04,11.50
2018,02,04,13,05,11.60
2018,02,04,13,06,11.70
2018,02,04,13,07,11.70
2018,02,04,13,08,11.70
2018,02,04,13,09,11.80
2018,02,04,13,10,11.80
2018,02,04,13,11,11.80
2018,02,04,13,12,11.80
2018,02,04,13,13,11.80
2018,02,04,13,14,11.80
2018,02,04,13,15,11.80
2018,02,04,13,16,11.90
2018,02,04,13,17,11.90
2018,02,04,13,18,11.90
2018,02,04,13,19,12.00
2018,02,04,13,20,12.00
2018,02,04,13,21,12.10
2018,02,04,13,22,12.10
2018,02,04,13,23,12.10
2018,02,04,13,24,12.00
2018,02,04,13,25,12.00
2018,02,04,13,26,12.00
2018,02,04,13,27,12.00
2018,02,04,13,28,12.00
2018,02,04,13,29,12.10
2018,02,04,13,30,12.10
2018,02,04,13,31,12.00
2018,02,04,13,32,12.00
2018,02,04,13,33,12.00
2018,02,04,13,34,12.00
2018,02,04,13,35,12.10
2018,02,04,13,36,12.10
2018,02,04,13,37,12.10
2018,02,04,13,38,12.10
2018,02,04,13,39,12.10
2018,02,04,13,40,12.00
2018,02,04,13,41,12.00
2018,02,04,13,42,12.00
2018,02,04,13,43,12.00
2018,02,04,13,44,12.00
2018,02,04,13,45,12.10
2018,02,04,13,46,12.20
2018,02,04,13,47,12.20
2018,02,04,13,48,12.20
2018,02,04,13,49,12.20
2018,02,04,13,50,12.30
2018,02,04,13,51,12.30
2018,02,04,13,52,12.30
2018,02,04,13,53,12.40
2018,02,04,13,54,12.40
2018,02,04,13,55,12.40
2018,02,04,13,56,12.40
2018,02,04,13,57,12.40
2018,02,04,13,58,12.30
2018,02,04,13,59,12.30
2018,02,04,14,00,12.40
2018,02,04,14,01,12.40
2018,02,04,14,02,12.40
2018,02,04,14,03,12.50
2018,02,04,14,04,12.50
2018,02,04,14,05,12.50
2018,02,04,14,06,12.40
2018,02,04,14,07,12.30
2018,02,04,14,08,12.30
2018,02,04,14,09,12.30
2018,02,04,14,10,12.30
2018,02,04,14,11,12.30
2018,02,04,14,12,12.20
2018,02,04,14,13,12.20
2018,02,04,14,14,12.20
2018,02,04,14,15,12.20
2018,02,04,14,16,12.20
2018,02,04,14,17,12.20
2018,02,04,14,18,12.20
2018,02,04,14,19,12.20
2018,02,04,14,20,12.20
2018,02,04,14,21,12.20
2018,02,04,14,22,12.30
2018,02,04,14,23,12.20
2018,02,04,14,24,12.20
2018,02,04,14,25,12.10
2018,02,04,14,26,12.10
2018,02,04,14,27,12.10
2018,02,04,14,28,12.00
2018,02,04,14,29,11.90
2018,02,04,14,30,11.90
2018,02,04,14,31,12.00
2018,02,04,14,32,12.00
2018,02,04,14,33,12.10
2018,02,04,14,34,12.10
2018,02,04,14,35,12.10
2018,02,04,14,36,12.10
2018,02,04,14,37,12.20
2018,02,04,14,38,12.20
2018,02,04,14,39,12.10
2018,02,04,14,40,12.10
2018,02,04,14,41,12.10
2018,02,04,14,42,12.10
2018,02,04,14,43,12.00
2018,02,04,14,44,12.00
2018,02,04,14,45,11.90
2018,02,04,14,46,11.90
2018,02,04,14,47,11.90
2018,02,04,14,48,11.90
2018,02,04,14,49,11.90
2018,02,04,14,50,11.80
2018,02,04,14,51,11.80
2018,02,04,14,52,11.80
2018,02,04,14,53,11.80
2018,02,04,14,54,11.70
2018,02,04,14,55,11.70
2018,02,04,14,56,11.70
2018,02,04,14,57,11.60
2018,02,04,14,58,11.70
2018,02,04,14,59,11.60
2018,02,04,15,00,11.60
2018,02,04,15,01,11.60
2018,02,04,15,02,11.60
2018,02,04,15,03,11.60
2018,02,04,15,04,11.50
2018,02,04,15,05,11.50
2018,02,04,15,06,11.50
2018,02,04,15,07,11.40
2018,02,04,15,08,11.40
2018,02,04,15,09,11.40
2018,02,04,15,10,11.40
2018,02,04,15,11,11.40
2018,02,04,15,12,11.40
2018,02,04,15,13,11.40
2018,02,04,15,14,11.50
2018,02,04,15,15,11.40
2018,02,04,15,16,11.40
2018,02,04,15,17,11.40
2018,02,04,15,18,11.40
2018,02,04,15,19,11.40
2018,02,04,15,20,11.40
2018,02,04,15,21,11.50
2018,02,04,15,22,11.50
2018,02,04,15,23,11.50
2018,02,04,15,24,11.60
2018,02,04,15,25,11.50
2018,02,04,15,26,11.60
2018,02,04,15,27,11.50
2018,02,04,15,28,11.50
2018,02,04,15,29,11.50
2018,02,04,15,30,11.40
2018,02,04,15,31,11.40
2018,02,04,15,32,11.30
2018,02,04,15,33,11.30
2018,02,04,15,34,11.30
2018,02,04,15,35,11.20
2018,02,04,15,36,11.20
2018,02,04,15,37,11.10
2018,02,04,15,38,11.10
2018,02,04,15,39,11.10
2018,02,04,15,40,11.00
2018,02,04,15,41,11.00
2018,02,04,15,42,11.00
2018,02,04,15,43,10.90
2018,02,04,15,44,10.90
2018,02,04,15,45,10.90
2018,02,04,15,46,10.80
2018,02,04,15,47,10.80
2018,02,04,15,48,10.80
2018,02,04,15,49,10.80
2018,02,04,15,50,10.80
2018,02,04,15,51,10.80
2018,02,04,15,52,10.80
2018,02,04,15,53,10.80
2018,02,04,15,54,10.80
2018,02,04,15,55,10.80
2018,02,04,15,56,10.80
2018,02,04,15,57,10.80
2018,02,04,15,58,10.80
2018,02,04,15,59,10.80
2018,02,04,16,00,10.80
2018,02,04,16,01,10.80
2018,02,04,16,02,10.80
2018,02,04,16,03,10.80
2018,02,04,16,04,10.80
2018,02,04,16,05,10.80
2018,02,04,16,06,10.80
2018,02,04,16,07,10.80
2018,02,04,16,08,10.70
2018,02,04,16,09,10.70
2018,02,04,16,10,10.70
2018,02,04,16,11,10.70
2018,02,04,16,12,10.70
2018,02,04,16,13,10.70
2018,02,04,16,14,10.70
2018,02,04,16,15,10.70
2018,02,04,16,16,10.70
2018,02,04,16,17,10.60
2018,02,04,16,18,10.60
2018,02,04,16,19,10.60
2018,02,04,16,20,10.60
2018,02,04,16,21,10.60
2018,02,04,16,22,10.60
2018,02,04,16,23,10.60
2018,02,04,16,24,10.60
2018,02,04,16,25,10.50
2018,02,04,16,26,10.60
2018,02,04,16,27,10.60
2018,02,04,16,28,10.60
2018,02,04,16,29,10.50
2018,02,04,16,30,10.50
2018,02,04,16,31,10.50
2018,02,04,16,32,10.50
2018,02,04,16,33,10.50
2018,02,04,16,34,10.50
2018,02,04,16,35,10.50
2018,02,04,16,36,10.50
2018,02,04,16,37,10.40
2018,02,04,16,38,10.40
2018,02,04,16,39,10.40
2018,02,04,16,40,10.40
2018,02,04,16,41,10.40
2018,02,04,16,42,10.40
2018,02,04,16,43,10.40
2018,02,04,16,44,10.40
2018,02,04,16,45,10.40
2018,02,04,16,46,10.40
2018,02,04,16,47,10.40
2018,02,04,16,48,10.40
2018,02,04,16,49,10.30
2018,02,04,16,50,10.30
2018,02,04,16,51,10.30
2018,02,04,16,52,10.30
2018,02,04,16,53,10.30
2018,02,04,16,54,10.30
2018,02,04,16,55,10.30
2018,02,04,16,56,10.30
2018,02,04,16,57,10.30
2018,02,04,16,58,10.30
2018,02,04,16,59,10.30
2018,02,04,17,00,10.30
2018,02,04,17,01,10.30
2018,02,04,17,02,10.30
2018,02,04,17,03,10.30
2018,02,04,17,04,10.30
2018,02,04,17,05,10.20
2018,02,04,17,06,10.20
2018,02,04,17,07,10.20
2018,02,04,17,08,10.20
2018,02,04,17,09,10.20
2018,02,04,17,10,10.20
2018,02,04,17,11,10.20
2018,02,04,17,12,10.20
2018,02,04,17,13,10.10
2018,02,04,17,14,10.10
2018,02,04,17,15,10.10
2018,02,04,17,16,10.10
2018,02,04,17,17,10.10
2018,02,04,17,18,10.10
2018,02,04,17,19,10.10
2018,02,04,17,20,10.10
2018,02,04,17,21,10.10
2018,02,04,17,22,10.10
2018,02,04,17,23,10.10
2018,02,04,17,24,10.10
2018,02,04,17,25,10.10
2018,02,04,17,26,10.00
2018,02,04,17,27,10.00
2018,02,04,17,28,10.00
2018,02,04,17,29,10.00